Probability
1 1 0 0 0 0 0 0 0 0 0 0 0 0 0 0 0 0 0 0 0 0 0 0 0 0 0 0 0 0 0 0 0 0 0 0 0 0 0 0 0 0 0 0 0 0 0 0 0
1 0 0 0 0 0 0 0 0 0 0 0 0 0 0 0 0 0 0 0 0 0 0 0 1 1 0 0 0 0 0 0 0 0 0 0 0 0 0 0 0 0 0 0 0 0 0 0 0
0 0 0 0 0 0 0 0 0 0 0 0 0 0 0 0 0 0 0 0 0 0 0 1 2 1 0 0 0 0 0 0 0 0 0 0 0 0 0 0 0 0 0 0 0 0 0 0 0
0 0 0 0 0 0 0 0 0 0 0 0 0 0 0 0 0 0 0 0 0 0 0 1 1 1 0 0 0 0 0 0 0 0 0 0 0 0 0 0 0 0 0 0 0 0 0 0 0
0 0 0 0 0 0 0 0 0 0 0 0 0 0 0 0 0 0 0 0 0 0 0 1 1 1 1 1 1 1 0 0 0 0 0 0 0 0 0 0 0 0 0 0 0 0 0 0 0
0 0 0 0 0 0 0 0 0 0 0 0 0 0 0 0 0 0 0 0 0 0 0 1 2 2 2 3 3 3 1 1 1 1 0 0 0 0 0 0 0 0 0 0 0 0 0 0 0
0 0 0 0 0 0 0 0 0 0 1 1 1 0 0 0 0 0 0 0 1 0 0 0 1 1 2 3 3 4 4 3 3 2 1 1 1 0 0 0 0 0 0 0 0 0 0 0 0
0 0 0 0 0 0 0 0 0 0 1 2 1 0 0 0 0 0 0 0 0 0 0 0 0 0 1 1 1 3 4 5 5 4 3 3 3 1 0 0 0 0 0 0 0 0 0 0 0
0 0 0 0 0 0 0 0 0 0 1 1 0 0 0 0 0 0 0 0 0 0 0 0 0 0 0 0 0 1 3 4 5 5 4 4 3 2 1 0 0 0 0 0 0 0 0 0 0
0 0 0 0 0 0 0 0 0 0 0 0 0 0 0 0 0 0 0 0 0 0 0 0 0 0 0 0 0 0 1 1 3 3 3 2 2 2 1 0 0 0 0 0 0 1 0 0 0
0 0 0 0 0 0 0 0 0 0 0 0 0 0 0 0 0 0 0 0 0 0 0 0 0 0 0 0 0 0 0 0 1 1 1 1 0 1 1 0 0 0 0 0 0 0 0 0 0
0 0 0 0 0 0 0 0 0 0 0 0 0 0 0 0 0 0 0 0 0 0 0 0 0 0 0 0 0 0 0 0 0 0 0 0 0 0 0 0 0 0 0 0 0 0 0 0 0
0 0 0 0 0 0 0 0 0 0 0 0 0 0 0 0 0 0 0 0 0 0 0 0 0 0 0 0 0 0 0 0 0 0 0 0 0 0 0 0 0 0 0 0 0 0 0 0 0
0 0 0 0 0 0 0 0 0 0 0 0 0 0 0 0 0 0 0 0 0 0 0 0 0 0 0 0 0 0 0 0 0 0 0 0 0 0 0 0 0 0 0 0 0 0 0 0 0
0 0 0 0 0 0 0 0 0 1 1 0 0 0 0 0 0 0 0 0 0 0 0 0 0 0 0 0 0 0 0 0 0 0 0 0 0 0 0 0 0 0 0 0 0 0 0 0 0
0 0 0 0 0 0 0 0 0 1 1 0 1 1 0 0 0 0 0 0 0 0 0 0 0 0 0 0 0 0 0 0 0 0 0 0 0 0 0 0 0 0 0 0 0 0 0 0 0
0 0 0 0 0 0 0 0 0 0 0 0 1 2 1 1 0 0 0 0 0 0 0 0 0 0 0 0 0 0 0 0 0 0 0 0 0 0 0 0 0 0 0 0 0 0 0 0 0
0 0 0 0 0 0 0 0 0 0 0 0 1 2 2 2 1 0 0 1 0 0 0 0 0 0 0 0 0 0 0 0 0 0 0 0 0 0 0 0 0 0 0 0 0 0 0 0 0
0 0 0 0 0 0 0 0 0 0 0 0 0 1 2 3 2 1 0 0 0 0 0 0 0 0 0 0 0 0 0 0 0 0 0 0 0 0 0 0 0 0 0 0 0 0 0 0 0
0 0 0 0 0 0 0 0 0 0 0 0 0 0 1 2 3 2 1 0 0 0 0 0 0 0 0 0 0 0 0 0 0 0 0 0 0 1 1 1 0 0 0 0 0 0 0 0 0
0 0 0 0 0 0 0 0 0 0 0 0 0 0 0 1 2 2 2 1 0 0 0 0 0 0 0 0 0 0 0 0 0 0 0 0 0 1 1 1 0 0 0 0 0 0 0 0 0
0 0 0 0 0 0 0 0 0 0 0 0 0 0 0 0 1 1 3 3 2 1 0 0 0 0 0 0 0 0 0 0 0 0 0 0 0 0 1 1 0 0 0 0 0 0 0 0 0
0 0 0 0 0 0 0 0 0 0 0 0 0 0 0 0 0 1 2 3 3 3 2 1 1 1 1 1 1 0 0 0 0 0 0 0 0 0 0 1 0 0 0 0 0 0 0 0 0
0 0 0 0 0 0 0 0 0 0 0 0 0 0 0 0 0 0 1 1 2 2 3 4 4 3 3 2 2 1 0 0 0 0 0 0 0 0 0 0 0 0 0 0 0 0 0 0 0
0 0 0 0 0 0 0 0 0 0 0 0 0 0 0 0 0 0 0 0 0 1 1 3 5 5 4 3 3 2 1 0 0 0 0 0 0 0 0 0 0 0 0 0 0 0 0 0 0
0 0 0 0 0 0 0 0 0 0 0 0 0 0 0 0 0 0 0 1 1 0 0 1 3 4 3 3 3 3 2 0 0 0 0 0 0 0 0 0 0 0 0 0 0 0 0 0 0
0 0 0 0 0 0 0 0 0 0 0 0 0 0 0 0 1 1 1 2 2 1 0 0 1 2 3 3 3 3 2 0 0 0 0 0 0 0 0 0 0 0 0 0 0 0 0 0 0
0 0 0 0 0 0 0 0 0 0 0 0 0 0 1 1 2 2 3 3 3 2 1 1 1 2 3 4 3 3 2 0 0 0 0 0 0 0 0 0 0 0 0 0 0 0 0 0 0
0 0 0 0 0 0 0 0 0 0 0 0 0 1 2 3 3 3 2 2 1 2 2 2 2 3 4 5 4 3 2 0 0 0 0 0 0 0 0 0 0 0 0 0 0 0 0 0 0
0 0 0 0 0 0 0 0 0 0 0 0 0 1 2 3 3 2 1 0 0 1 3 3 3 3 4 5 5 3 2 1 0 0 0 0 0 0 0 0 0 0 0 0 0 0 0 0 0
Wind_Speed
1 0 2 3 6 6 3 2 1 2 4 4 7 9 7 5 4 4 2 4 5 3 3 5 8 9 10 10 10 10 10 11 11 11 11 12 12 12 12 12 12 12 11 11 10 10 10 10 10
0 1 3 4 6 4 2 1 3 3 5 6 7 7 7 5 3 4 2 4 5 4 3 5 8 9 9 10 10 10 10 11 11 11 11 12 12 11 12 11 11 11 11 11 11 10 10 10 10
1 1 3 5 4 3 2 1 3 3 5 4 5 5 5 4 2 3 4 6 5 4 3 5 9 9 9 9 10 10 10 11 11 11 11 11 11 11 11 11 11 11 11 11 10 10 10 10 11
2 4 5 6 5 2 4 2 3 5 5 6 6 6 4 2 2 4 7 7 6 4 3 5 9 9 9 9 9 9 10 10 10 10 11 11 11 11 10 10 11 11 11 10 10 10 10 11 12
4 5 6 4 3 1 2 2 4 6 4 5 7 6 3 2 4 7 7 7 6 4 3 5 9 9 9 9 9 9 9 9 10 10 10 10 10 10 10 10 10 10 10 10 9 9 10 10 11
4 5 5 3 2 2 2 3 6 8 6 6 6 5 2 1 4 5 6 6 6 5 3 3 8 9 8 9 8 8 8 9 9 9 9 9 9 9 9 9 9 9 9 9 9 8 9 10 11
5 4 3 4 3 3 3 3 5 6 5 4 5 5 2 1 2 4 5 6 5 4 3 2 2 4 6 7 7 7 7 7 7 8 7 7 8 8 8 7 8 8 8 8 8 7 8 9 10
5 5 3 2 3 2 2 3 4 6 5 4 5 6 4 4 3 4 4 5 5 4 3 2 1 1 1 2 5 5 6 6 6 6 6 6 7 7 7 5 5 6 7 6 6 7 8 9 10
5 6 3 2 4 3 3 6 3 4 6 4 3 5 6 6 5 5 4 4 3 4 3 3 2 1 1 1 2 2 3 3 3 3 4 4 2 2 3 3 4 4 6 6 6 6 8 9 10
5 4 1 3 5 5 4 5 4 5 5 4 4 4 6 6 6 5 4 3 3 4 4 3 3 2 1 1 1 1 1 1 1 1 1 1 1 1 2 3 4 6 7 8 8 9 9 7 5
4 4 2 3 5 6 6 4 3 7 4 5 7 7 6 5 5 5 4 4 3 4 4 4 3 2 2 1 1 0 0 1 1 0 1 1 2 1 2 2 2 4 5 4 5 6 4 4 4
4 2 4 4 4 5 5 4 4 4 5 7 9 9 7 6 5 5 5 3 3 3 3 4 4 3 2 2 1 1 1 1 1 0 1 2 2 2 1 1 1 2 2 2 3 3 4 4 5
4 3 4 5 6 4 5 5 5 3 4 8 8 7 7 6 5 4 4 4 3 3 3 4 4 4 3 2 1 1 1 1 1 1 2 3 2 2 2 1 2 2 2 2 3 3 4 4 4
4 4 3 4 4 3 5 3 4 3 6 9 8 6 5 5 5 3 3 3 3 4 3 3 4 4 4 3 2 1 1 1 1 1 2 3 2 2 2 2 2 2 2 2 3 3 3 3 3
4 4 2 1 3 3 5 2 2 5 8 8 7 6 5 4 4 4 4 4 4 4 4 4 4 4 4 4 3 2 1 2 2 1 2 3 2 2 2 2 2 1 2 3 3 4 3 4 4
3 4 1 3 3 3 6 2 4 6 9 7 6 5 4 3 3 3 4 3 3 3 3 3 4 5 4 3 3 2 2 2 1 1 2 3 2 3 2 2 1 1 2 3 3 3 3 3 3
2 1 2 3 3 3 4 3 4 5 8 7 5 4 4 2 1 2 3 4 4 4 4 3 4 5 4 4 3 3 2 2 1 2 2 2 2 3 3 2 1 2 3 2 3 2 3 3 2
2 2 2 3 3 4 3 2 2 4 7 7 5 5 4 3 2 2 2 3 3 3 4 4 4 4 4 3 3 2 2 2 2 1 1 2 2 3 3 2 2 2 3 3 2 3 2 2 1
2 2 2 4 3 4 4 2 2 4 4 5 5 5 5 4 3 2 3 3 3 2 3 4 4 4 4 3 2 2 1 0 1 1 1 2 2 3 3 2 2 2 3 2 3 2 3 1 2
1 1 1 2 2 4 3 2 2 3 5 6 7 6 6 4 2 1 2 3 3 3 2 3 3 4 4 3 3 2 2 1 1 0 1 1 2 2 3 3 2 2 2 3 2 3 2 1 1
1 2 3 2 0 1 3 3 3 2 2 3 4 5 5 6 6 4 3 3 3 3 3 3 3 3 4 4 3 3 2 2 2 1 1 1 1 1 2 3 2 2 2 2 2 2 3 1 0
2 3 3 1 2 2 2 2 5 3 1 2 4 4 4 4 4 4 4 3 4 3 3 3 3 2 2 4 4 5 3 2 2 1 1 0 0 1 2 2 2 2 2 2 2 2 2 3 1
4 3 2 1 2 1 1 2 6 1 2 4 4 5 5 5 5 5 4 4 4 3 4 3 3 2 2 3 4 5 3 2 1 1 1 0 0 0 1 2 2 2 1 2 2 2 2 2 2
1 4 5 5 4 1 4 4 5 4 6 4 4 5 5 4 4 4 3 2 2 2 2 3 3 2 2 3 3 3 4 3 2 2 1 1 0 0 1 1 2 2 1 1 2 2 3 2 2
5 6 4 5 3 5 2 2 6 5 5 7 7 6 5 4 4 3 2 2 2 2 2 2 3 2 2 3 3 3 3 4 4 3 3 2 1 1 2 1 2 2 2 2 2 2 2 2 2
2 7 6 3 4 4 3 2 5 3 2 4 6 6 5 4 4 4 4 3 2 2 2 2 2 2 2 2 2 2 3 2 2 3 3 3 2 2 2 2 2 2 2 2 1 1 2 2 2
2 2 6 5 1 1 3 3 4 2 2 3 4 4 4 4 4 4 3 3 3 2 2 3 2 2 2 2 2 2 2 2 2 2 2 2 2 2 2 2 2 2 2 2 2 1 1 2 2
4 5 4 4 2 2 3 3 4 4 4 3 3 4 4 4 4 3 3 3 2 2 2 2 2 2 2 2 2 2 2 2 2 2 1 2 2 1 2 2 2 2 2 2 2 1 1 2 1
1 1 3 3 4 4 3 6 5 8 6 6 6 5 5 5 5 4 3 3 2 1 2 2 2 1 1 2 2 2 2 1 1 2 2 2 2 2 2 3 2 2 2 2 2 1 1 2 1
3 4 5 4 3 3 3 7 4 5 5 5 5 4 4 4 4 4 3 2 2 1 1 1 1 1 1 2 2 2 2 1 1 2 2 2 2 2 2 2 2 2 2 2 3 3 2 2 2
Wind_Direction
290 49 95 66 55 54 54 23 112 62 58 55 70 81 80 60 85 126 216 134 126 117 98 88 87 87 90 92 92 91 92 93 93 91 88 86 85 84 83 80 78 78 77 76 74 70 65 61 58
63 89 71 60 75 73 38 0 87 95 133 122 80 80 78 68 79 110 119 140 124 115 105 102 97 94 93 94 94 94 95 97 96 93 91 88 87 85 83 80 78 76 75 74 71 68 65 60 55
196 133 78 66 81 123 143 190 122 92 100 97 79 56 68 100 102 125 148 145 125 115 107 109 106 102 99 97 96 96 97 99 99 97 94 92 89 85 82 79 77 75 74 72 69 67 64 59 56
77 49 56 71 82 132 157 182 131 96 64 60 91 68 53 75 132 139 142 137 126 121 118 122 115 109 105 104 102 100 100 101 99 97 96 94 91 87 84 81 77 75 72 71 70 66 63 59 57
68 72 63 66 74 82 122 136 101 91 77 73 88 89 66 17 108 129 138 137 132 134 129 128 122 116 113 111 110 108 107 106 104 101 97 95 91 88 86 83 79 75 73 71 68 64 61 58 57
60 67 81 91 91 80 100 112 98 93 102 99 95 102 110 126 110 131 141 143 141 141 138 128 127 124 120 119 116 115 116 114 110 105 100 98 94 92 90 87 82 77 71 67 65 61 56 53 56
99 88 106 128 115 91 112 99 101 110 107 117 117 104 131 178 151 146 137 135 137 135 129 126 125 121 125 125 121 118 120 119 116 114 111 108 103 99 94 89 82 76 71 64 60 56 54 55 61
120 98 83 105 115 104 114 97 110 107 103 115 110 128 166 202 172 131 122 126 134 131 129 132 124 120 121 120 126 125 123 123 124 124 120 116 110 103 99 90 79 72 68 62 53 49 55 60 64
81 79 98 141 134 129 113 98 86 82 93 75 84 141 165 160 126 106 93 91 115 130 139 151 156 173 173 163 136 122 120 122 123 126 124 108 84 86 90 90 76 61 58 51 42 46 57 63 65
80 100 155 159 147 137 117 110 118 90 82 79 74 91 126 134 125 123 121 120 129 144 160 163 161 171 175 133 91 55 70 62 62 74 102 99 100 110 99 81 62 53 54 52 53 60 63 65 61
106 134 121 97 119 117 111 103 97 112 115 156 151 150 144 135 133 140 151 149 152 156 154 164 168 173 160 124 112 44 17 357 15 40 121 113 95 76 62 45 27 33 48 45 47 51 50 60 71
99 106 112 107 106 108 116 113 97 127 172 166 154 151 147 146 155 160 167 169 154 144 149 153 158 155 155 139 113 89 56 16 27 67 101 110 103 86 75 58 42 45 50 53 50 51 50 65 75
95 107 101 106 99 110 114 118 120 139 143 139 140 140 152 160 166 181 175 160 146 146 150 143 140 137 132 116 101 93 91 76 76 70 84 106 109 107 90 74 63 60 62 70 66 59 64 72 72
139 121 116 117 113 118 118 119 116 166 145 139 144 155 165 167 173 165 159 155 161 159 156 151 136 132 122 110 107 107 85 78 75 72 92 103 112 117 107 84 70 62 68 72 80 79 79 73 74
112 97 62 145 153 155 112 74 179 176 147 148 160 166 169 177 171 166 169 167 173 166 155 151 144 127 123 121 121 110 94 87 81 71 76 86 98 115 111 96 75 65 77 78 73 67 70 75 71
75 89 126 253 180 163 120 203 232 172 150 160 168 169 165 173 166 164 155 151 159 148 145 154 141 127 126 122 121 112 97 84 77 73 71 77 94 104 98 96 92 86 84 84 86 77 71 64 65
41 135 214 247 203 158 141 208 232 182 158 164 171 166 158 151 145 161 158 153 160 157 155 150 138 136 134 129 116 106 92 86 80 74 69 74 81 95 100 94 93 92 83 81 97 85 92 85 71
209 197 213 213 212 139 140 210 233 174 156 163 162 157 151 149 176 156 148 147 150 157 156 148 142 138 131 117 98 83 73 66 70 78 84 86 83 92 97 96 88 91 86 74 81 91 84 98 95
182 167 209 229 203 142 162 194 220 179 158 160 166 166 168 181 192 134 114 116 109 113 141 147 147 147 136 126 124 119 114 73 58 75 91 91 94 100 97 97 93 99 104 111 111 100 89 69 82
139 58 294 291 201 145 153 223 245 177 184 179 175 181 184 177 158 138 114 115 126 123 130 145 160 159 157 154 155 153 150 149 143 51 57 81 96 107 115 114 118 115 108 98 97 105 104 97 102
189 180 213 224 3 63 111 336 307 267 186 167 175 175 180 175 176 176 156 148 138 142 151 151 162 166 166 155 127 101 77 58 44 31 14 14 110 110 114 123 124 122 121 133 134 125 127 137 345
217 214 197 186 111 263 156 231 278 254 242 206 198 177 178 179 175 177 173 166 165 172 165 150 147 142 155 152 145 145 144 156 193 193 190 291 108 118 127 131 126 130 131 143 156 138 135 132 141
213 225 196 181 148 316 326 160 276 281 226 231 208 190 184 180 174 175 183 188 183 168 159 154 136 130 134 147 155 151 147 167 173 152 145 171 272 170 141 143 130 131 139 159 158 137 134 144 153
145 47 32 45 70 308 247 171 265 235 212 204 195 187 182 173 172 177 183 164 152 136 130 138 136 135 130 135 137 147 158 162 150 158 171 197 251 284 214 162 153 155 154 163 172 163 157 159 149
69 76 33 4 9 259 263 155 246 246 214 182 175 181 177 163 159 162 156 150 151 142 130 128 136 141 148 141 147 160 168 167 170 177 182 180 196 229 233 197 178 180 192 180 164 155 161 163 159
163 134 151 195 228 278 330 228 258 273 186 151 153 155 151 153 160 166 169 164 164 158 143 133 146 160 157 155 167 166 159 160 179 185 177 184 196 210 214 200 180 176 174 168 157 152 171 153 161
144 166 171 149 226 267 284 295 315 22 70 105 126 134 159 164 163 170 167 156 160 159 153 148 150 161 164 162 151 156 156 160 179 192 182 187 198 198 197 185 167 167 162 154 143 130 158 147 157
151 153 94 114 168 258 278 244 228 223 211 184 167 175 183 175 166 166 166 164 172 177 166 136 139 161 186 175 166 165 183 188 180 165 181 193 194 186 173 181 175 168 158 152 144 146 162 141 164
104 104 117 129 156 164 240 262 225 201 194 187 194 189 184 181 178 178 181 178 164 136 133 139 153 142 159 172 172 163 184 193 169 175 193 194 186 173 178 182 178 176 171 169 157 173 168 157 172
163 174 145 153 230 180 192 262 267 187 191 188 194 198 191 177 183 181 172 156 149 147 141 153 159 165 197 188 168 169 179 177 186 200 209 196 188 195 188 174 173 180 184 185 184 200 189 175 187